{"data":{"norad_id":51652,"intl_designator":"2022-012AG","name":"ONEWEB-0468","alt_names":[],"object_type":"PAYLOAD","status":"ACTIVE","operator":null,"country":"UK","launch_date":"2022-02-10","launch_site_code":"FRGUI","launch_vehicle":null,"mission":null,"orbit_class":"UNKNOWN","rcs_meters":null,"size_class":null,"mass_kg":null,"dimensions":null,"purposes":["comms"],"wikipedia_slug":null,"has_3d_model":false,"image_url":null,"decayed_at":null,"tle_current":{"epoch":"2026-05-25T03:10:30.671616Z","epoch_age_seconds":59615,"freshness":"FRESH","line1":"1 51652U 22012AG  26145.13229944 -.00000330  00000+0 -98030-3 0  9998","line2":"2 51652  87.8857  40.8650 0001859  68.2142 291.9183 13.10378280206287","mean_motion":13.1037828,"eccentricity":0.0001859,"inclination_deg":87.8857,"raan_deg":40.865,"arg_perigee_deg":68.2142,"mean_anomaly_deg":291.9183,"bstar":-0.0009803,"rev_number":20628,"period_min":109.89193135894,"perigee_km":1220.2832191474,"apogee_km":1223.1088370673,"semimajor_km":7599.8330281073,"source":"CELESTRAK","updated_at":"2026-05-25T13:38:22.582807Z"}}}